DELTA 1 DEB

Satellite information

Favourite Embed

Satellite Type and Status

DEBRISIN ORBIT

Key statistics

Satellite DELTA 1 DEB at a glance.

Uptime

17813

Days in orbit

Revolutions

≈ 14.0

Per day

Orbit

SSO

Sun Synchronous Orbit

Inclination

100.6

Latest

Satellite identification and parameters

Extended collection of information and parameters for DELTA 1 DEB.

Object identification

Identified? True

Debris? True

Object name: DELTA 1 DEB

International designator: 1976-077Z

Object number (NORAD): 10663

Object ID (CCSDS): 10663

Country: UNITED STATES OF AMERICA (US)

Current information (Y/N): Y

RCS size: SMALL

Orbital parameters

Period: 102.954 minutes

Inclination: 100.5888 deg

SMA: 7276.519 km

Apoapsis: 977.464 km

Periapsis: 819.304 km

RAAN: 78.3037 deg

Eccentricy: 0.0108678

Argument of periapsis: 176.1688 deg

Mean anomaly: 184.0327 deg

Mean motion: 13.98676411 rev/day

Mean motion (dot): 0.00008269 rev/day2

B* drag term: 0.0055023 1/REarth

Two-line elements (TLE)

Creation date: May 6, 2025, 3:54 a.m.

Reference frame: TEME

Reference center: EARTH

Epoch: May 5, 2025, 7:05 a.m. UTC

TLE line 0: 0 DELTA 1 DEB

TLE line 1: 1 10663U 76077Z 25125.29561671 .00008269 00000-0 55023-2 0 9997

TLE line 2: 2 10663 100.5888 78.3037 0108678 176.1688 184.0327 13.98676411373782

Live tracking on map

Real-time ground track for satellite DELTA 1 DEB.

In-orbit conjunctions

A list of the most updated potential collisions computed for object DELTA 1 DEB.

Target Orbit TCA Probability of collision Miss distance Type
SL-8 R/B LEO 2024-10-19 11:20:39 0.0001532586 195.0 (m) ROCKET BODY
COSMOS 1821 LEO 2024-07-24 15:04:40 0.000191037 996.0 (m) PAYLOAD

Associated space launch

Meteorological satellite using radiometric imaging

DELTA 1 DEB was lifted into orbit during the mission ‘Delta 2310 | NOAA 5’, on board a Delta 2310 space rocket.

The launch took place on July 29, 1976, 5:07 p.m. from Space Launch Complex 2W.

For more information about the launch, click the button.

Launch to space Delta 2310 | NOAA 5
Delta 2310 | NOAA 5

Agency: N/A

Status: Launch Successful

Launch date: July 29, 1976, 5:07 p.m. UTC

Rocket: Delta 2310

Launch pad: Space Launch Complex 2W

Location: Vandenberg SFB, CA, USA

...

Latest news about this satellite

There are no fresh news available about this satellite. Check back as we update our databases every day.


Newsletter sign-up

Weekly statistics, charts and insights to help you stay on top of the space industry.